Waarnemingen

Advertentie
Mijn weer
Avignon, Frankrijk (7563): temperatuur & dauwpunt: 23.03.2017 01:00:00 - 29.03.2017 01:00:00 (CEST)Avignon, Frankrijk (7563): temperatuur 5cm: 23.03.2017 01:00:00 - 29.03.2017 01:00:00 (CEST)Avignon, Frankrijk (7563): windsnelheid & windstoten: 23.03.2017 01:00:00 - 29.03.2017 01:00:00 (CEST)Avignon, Frankrijk (7563): windrichting: 23.03.2017 01:00:00 - 29.03.2017 01:00:00 (CEST)Avignon, Frankrijk (7563): luchtdruk: 23.03.2017 01:00:00 - 29.03.2017 01:00:00 (CEST)Avignon, Frankrijk (7563): zicht: 23.03.2017 01:00:00 - 29.03.2017 01:00:00 (CEST)Avignon, Frankrijk (7563): neerslag: 23.03.2017 01:00:00 - 29.03.2017 01:00:00 (CEST)
Datum & Tijd tt [°C] td [°C] tt 5cm [°C] ff [km/u] ff [kn] fx [km/u] fx [kn] dd ppp [hPa] vv [km] rr [mm]
29.03.2017 01:00:00 7,3 5,4 - 0 0 8 4 N 1024,9 10 0,0
29.03.2017 00:00:00 8,8 6,6 4,6 2 1 5 3 Z 1024,8 19 0,0
28.03.2017 23:00:00 10,3 7,2 6,6 4 2 6 3 ZZO 1024,9 33 0,0
28.03.2017 22:00:00 12,5 7,8 7,5 0 0 9 5 N 1024,5 43 0,0
28.03.2017 21:00:00 14,7 8,2 - 8 4 21 11 W 1024,1 50 0,0
28.03.2017 20:00:00 17,0 8,9 15,5 13 7 22 12 WZW 1023,6 49 0,0
28.03.2017 19:00:00 19,9 7,6 20,6 15 8 22 12 W 1023,4 50 0,0
28.03.2017 18:00:00 21,3 3,9 23,5 13 7 20 11 W 1023,4 57 0,0
28.03.2017 17:00:00 21,3 4,4 24,6 9 5 19 10 WZW 1023,6 20 0,0
28.03.2017 16:00:00 20,7 3,4 - 11 6 24 13 W 1024,2 10 0,0
28.03.2017 15:00:00 19,5 4,0 22,5 11 6 23 12 W 1024,9 58 0,0
28.03.2017 14:00:00 19,3 4,6 24,1 9 5 24 13 W 1025,6 19 0,0
28.03.2017 13:00:00 17,6 4,2 - 11 6 24 13 WNW 1026,2 40 0,0
28.03.2017 12:00:00 16,5 7,4 22,6 4 2 9 5 NW 1026,7 20 0,0
28.03.2017 11:00:00 13,8 9,0 14,7 2 1 7 4 NNW 1026,6 19 0,0
28.03.2017 10:00:00 10,6 8,7 8,9 3 1 7 4 NW 1026,6 15 0,0
28.03.2017 09:00:00 8,6 7,7 - 0 0 2 1 N 1026,2 8 0,0
28.03.2017 08:00:00 5,6 4,7 2,5 3 2 7 4 ZZW 1025,7 9 0,0
28.03.2017 07:00:00 5,0 4,0 - 0 0 2 1 N 1025,4 9 0,0
28.03.2017 06:00:00 4,9 3,9 1,0 0 0 3 1 N 1025,4 1,6 0,0
28.03.2017 05:00:00 5,2 4,0 1,5 0 0 4 2 N 1025,1 0,6 0,0
28.03.2017 04:00:00 5,5 4,1 2,2 2 1 6 3 Z 1025,1 12 0,0
28.03.2017 03:00:00 6,4 4,7 - 4 2 5 3 O 1025,5 12 0,0
28.03.2017 02:00:00 9,0 7,1 5,6 4 2 7 4 Z 1025,2 19 0,0
28.03.2017 01:00:00 8,8 7,2 4,0 3 2 4 2 Z 1025,1 28 0,0
28.03.2017 00:00:00 8,0 5,8 - 2 1 11 6 O 1024,9 28 0,0
27.03.2017 23:00:00 9,7 7,0 5,6 4 2 7 4 ZZO 1024,6 36 0,0
27.03.2017 22:00:00 11,7 7,4 - 5 3 15 8 ZW 1024,1 30 0,0
27.03.2017 21:00:00 13,1 8,0 10,9 9 5 21 11 W 1023,4 49 0,0
27.03.2017 20:00:00 15,0 8,0 - 15 8 22 12 WZW 1022,8 55 -
27.03.2017 19:00:00 17,5 8,4 18,9 11 6 18 10 W 1022,0 59 0,0
27.03.2017 18:00:00 18,5 8,2 23,0 5 3 20 11 ZZW 1021,9 56 0,0
27.03.2017 17:00:00 18,4 8,9 - 11 6 26 14 ZW 1022,4 50 -
27.03.2017 16:00:00 17,9 9,8 - 11 6 34 18 Z 1022,6 55 0,0
27.03.2017 15:00:00 18,0 9,6 18,8 18 10 30 16 Z 1023,0 60 0,0
27.03.2017 14:00:00 17,9 9,3 16,9 19 11 34 19 ZZW 1023,2 58 0,0
27.03.2017 13:00:00 16,0 9,6 17,0 10 6 27 15 WZW 1023,2 49 0,0
27.03.2017 12:00:00 15,9 9,3 17,7 14 8 26 14 Z 1023,1 58 0,0
27.03.2017 11:00:00 13,2 10,4 14,1 5 3 10 5 NW 1022,7 20 0,0
27.03.2017 10:00:00 9,3 8,4 - 5 3 9 5 N 1022,6 4,9 0,0
27.03.2017 09:00:00 6,8 5,9 1,9 5 3 10 6 NNW 1022,1 0,3 0,0
27.03.2017 08:00:00 4,4 3,2 0,6 6 3 8 5 N 1021,7 3,4 0,0
27.03.2017 07:00:00 5,2 3,8 1,5 5 3 11 6 NNO 1021,0 6 0,0
27.03.2017 06:00:00 7,9 6,5 1,7 8 4 15 8 OZO 1020,6 43 0,0
27.03.2017 05:00:00 6,8 5,4 2,8 3 2 14 7 Z 1020,6 20 0,0
27.03.2017 04:00:00 8,3 7,1 4,8 9 5 19 11 ZO 1020,8 19 0,0
27.03.2017 03:00:00 8,5 7,4 4,8 8 4 12 6 ZO 1020,4 16 0,0
27.03.2017 02:00:00 9,5 8,4 4,9 8 5 10 5 OZO 1020,3 12 0,0
27.03.2017 01:00:00 8,6 7,4 3,0 8 5 10 5 O 1020,2 9 0,0
27.03.2017 00:00:00 9,2 7,6 4,4 3 1 10 5 ZZO 1019,7 12 0,0
26.03.2017 23:00:00 10,3 8,2 - 2 1 15 8 ZZW 1019,7 19 -
26.03.2017 22:00:00 9,1 6,7 3,1 9 5 13 7 WZW 1019,6 37 0,0
26.03.2017 21:00:00 9,3 5,7 4,5 4 2 5 3 OZO 1019,1 60 0,0
26.03.2017 20:00:00 14,2 6,0 8,8 5 3 13 7 NW 1018,4 60 0,0
26.03.2017 19:00:00 16,9 7,0 17,6 9 5 20 11 NNW 1017,8 59 0,0
26.03.2017 18:00:00 17,4 7,4 16,4 9 5 17 9 NW 1018,0 55 0,0
26.03.2017 17:00:00 18,0 6,5 19,7 4 2 12 7 W 1018,5 57 0,0
26.03.2017 16:00:00 16,0 6,7 18,8 3 2 10 5 ONO 1019,2 60 0,0
26.03.2017 15:00:00 16,0 6,7 17,1 5 3 13 7 N 1020,0 60 0,0
26.03.2017 14:00:00 16,6 7,0 - 2 1 13 7 Z 1020,5 19 -
26.03.2017 13:00:00 16,0 6,7 24,0 4 2 19 10 O 1020,4 57 0,0
26.03.2017 12:00:00 15,4 6,7 21,4 9 5 16 8 Z 1021,0 18 0,0
26.03.2017 11:00:00 13,3 5,9 15,7 6 4 14 7 O 1021,0 60 0,0
26.03.2017 10:00:00 11,0 5,7 9,5 4 2 11 6 NNO 1020,7 57 0,0
26.03.2017 09:00:00 7,1 4,6 - 9 5 11 6 N 1020,6 29 0,0
26.03.2017 08:00:00 4,9 1,7 2,3 3 2 18 10 NW 1020,0 60 0,0
26.03.2017 07:00:00 7,5 2,8 2,8 13 7 24 13 ZO 1019,7 60 0,0
26.03.2017 06:00:00 7,5 3,0 5,2 3 2 27 15 ZZO 1019,8 60 0,0
26.03.2017 05:00:00 7,0 3,4 3,4 9 5 19 10 OZO 1020,0 60 0,0
26.03.2017 04:00:00 7,3 3,3 4,8 8 5 19 10 ZO 1020,1 60 0,0
26.03.2017 03:00:00 7,9 3,5 5,7 14 7 26 14 ZO 1020,5 60 0,0
26.03.2017 02:00:00 7,7 3,7 5,4 11 6 27 15 ZO 1020,5 60 0,0
26.03.2017 01:00:00 8,0 4,2 5,8 15 8 23 13 OZO 1020,6 60 0,0
26.03.2017 00:00:00 8,5 4,3 6,8 15 8 26 14 ZO 1020,2 60 0,0
25.03.2017 23:00:00 9,1 4,5 - 15 8 29 16 ZO 1019,8 60 -
25.03.2017 22:00:00 8,8 4,8 7,7 15 8 25 13 OZO 1020,0 60 0,0
25.03.2017 21:00:00 9,2 5,0 8,2 16 8 29 16 OZO 1019,2 60 0,0
25.03.2017 20:00:00 9,4 5,6 8,5 14 8 29 16 OZO 1018,9 60 0,0
25.03.2017 19:00:00 9,9 5,9 9,5 17 9 27 15 OZO 1018,8 60 0,0
25.03.2017 18:00:00 10,6 7,1 - 15 8 24 13 OZO 1018,9 60 0,0
25.03.2017 17:00:00 11,1 8,7 11,3 8 5 19 10 OZO 1018,9 56 0,0
25.03.2017 16:00:00 10,9 8,6 11,3 13 7 22 12 OZO 1019,0 60 0,0
25.03.2017 15:00:00 10,9 9,2 11,3 10 5 18 10 OZO 1019,6 60 0,0
25.03.2017 14:00:00 11,0 9,7 10,6 10 5 21 11 OZO 1019,8 20 0,0
25.03.2017 13:00:00 10,5 9,3 10,0 14 8 37 20 OZO 1019,5 17 2,8
25.03.2017 12:00:00 10,5 8,9 9,7 24 13 58 32 ZO 1018,6 3,9 7,5
25.03.2017 11:00:00 10,3 8,6 9,7 35 19 71 38 Z 1017,2 2,4 2,8
25.03.2017 10:00:00 14,9 9,7 - 21 11 41 22 OZO 1014,7 50 0,0
25.03.2017 09:00:00 10,2 8,8 8,3 6 3 19 11 N 1014,7 7 0,0
25.03.2017 08:00:00 9,2 8,1 5,8 9 5 23 12 N 1014,7 6 0,0
25.03.2017 07:00:00 7,7 6,8 4,4 5 3 14 7 ONO 1014,4 3,2 0,0
25.03.2017 06:00:00 8,9 8,0 6,3 9 5 21 11 N 1014,6 7 0,0
25.03.2017 05:00:00 8,7 7,9 3,7 11 6 19 10 NNO 1015,3 6 0,0
25.03.2017 04:00:00 5,6 4,7 - 2 1 5 3 Z 1016,8 0,1 0,0
25.03.2017 03:00:00 7,7 6,6 4,7 0 0 10 5 N 1017,5 3,9 0,0
25.03.2017 02:00:00 8,8 7,9 4,9 2 1 8 5 Z 1017,3 5 0,0
25.03.2017 01:00:00 8,1 7,0 - 4 2 9 5 N 1017,5 2,3 0,0
25.03.2017 00:00:00 9,8 8,6 7,6 5 3 18 10 N 1016,9 3,4 0,0
24.03.2017 23:00:00 10,5 9,4 9,0 13 7 18 10 N 1016,9 8 0,0
24.03.2017 22:00:00 10,7 9,6 9,4 9 5 14 7 N 1017,2 6 0,0
24.03.2017 21:00:00 11,1 9,8 10,1 10 5 24 13 N 1017,4 7 0,0
24.03.2017 20:00:00 11,5 10,2 10,8 18 10 25 14 N 1017,1 9 0,2
24.03.2017 19:00:00 11,7 10,4 11,4 6 4 16 9 N 1017,5 11 0,2
24.03.2017 18:00:00 12,0 10,7 11,7 11 6 23 12 NNW 1017,1 13 0,4
24.03.2017 17:00:00 11,6 10,3 11,8 14 7 21 12 NNW 1016,9 10 0,6
24.03.2017 16:00:00 11,5 10,4 11,4 9 5 31 17 N 1016,5 20 0,0
24.03.2017 15:00:00 11,0 10,1 11,0 16 9 27 14 N 1016,6 13 0,6
24.03.2017 14:00:00 11,8 10,7 - 9 5 18 10 NNW 1017,0 4,7 -
24.03.2017 13:00:00 11,6 10,5 11,3 13 7 18 10 N 1017,4 10 2,0
24.03.2017 12:00:00 11,2 10,1 11,2 12 7 20 11 N 1017,5 6 1,6
24.03.2017 11:00:00 11,8 10,5 11,6 10 5 14 7 N 1017,4 9 1,4
24.03.2017 10:00:00 11,9 10,3 11,4 0 0 8 4 N 1017,4 17 0,6
24.03.2017 09:00:00 11,8 10,4 11,0 4 2 12 7 ZZO 1017,3 60 0,0
24.03.2017 08:00:00 11,4 10,3 10,7 6 3 13 7 OZO 1017,0 4,8 0,2
24.03.2017 07:00:00 11,1 9,8 10,7 5 3 14 8 Z 1016,5 5 0,6
24.03.2017 06:00:00 11,2 9,8 10,6 12 6 23 12 OZO 1016,0 4,5 0,2
24.03.2017 05:00:00 11,3 9,7 10,4 16 9 27 15 O 1015,6 51 0,8
24.03.2017 04:00:00 11,0 9,4 10,4 12 6 22 12 OZO 1016,5 14 1,0
24.03.2017 03:00:00 11,2 9,6 10,5 15 8 28 15 OZO 1016,4 42 0,4
24.03.2017 02:00:00 11,3 9,6 10,5 16 9 28 15 OZO 1016,7 17 0,4
24.03.2017 01:00:00 11,9 9,6 10,8 15 8 25 13 ZO 1016,4 51 0,0
24.03.2017 00:00:00 11,6 9,3 9,9 16 9 25 14 OZO 1016,0 50 0,0
23.03.2017 23:00:00 10,6 8,4 9,8 14 7 31 17 ZO 1015,3 54 0,0
23.03.2017 22:00:00 12,0 10,1 - 22 12 35 19 ZO 1014,2 19 0,0
23.03.2017 21:00:00 13,1 11,2 11,1 16 8 34 18 ZZO 1013,3 15 0,8
23.03.2017 20:00:00 12,7 10,1 11,5 25 13 41 22 ZZO 1012,5 15 3,9
23.03.2017 19:00:00 14,6 11,0 12,9 24 13 51 27 ZZO 1011,8 15 0,2
23.03.2017 18:00:00 15,9 9,6 15,7 31 17 55 30 Z 1010,7 20 0,0
23.03.2017 17:00:00 16,6 10,0 16,8 38 20 61 33 ZZO 1010,2 20 0,0
23.03.2017 16:00:00 17,7 10,1 18,4 38 20 60 32 Z 1009,8 55 0,0
23.03.2017 15:00:00 17,1 10,2 - 26 14 44 24 ZO 1009,7 55 0,0
23.03.2017 14:00:00 16,1 9,7 15,1 28 15 48 26 ZO 1010,3 35 0,0
23.03.2017 13:00:00 15,3 9,9 - 24 13 52 28 ZZO 1010,6 45 0,2
23.03.2017 12:00:00 17,1 10,7 14,5 29 16 54 29 ZO 1010,1 60 0,0
23.03.2017 11:00:00 16,1 8,8 16,5 33 18 51 28 ZO 1010,3 52 0,0
23.03.2017 10:00:00 15,1 9,9 12,8 21 12 45 25 OZO 1009,7 43 0,0
23.03.2017 09:00:00 12,8 9,4 11,2 25 14 45 24 OZO 1010,0 43 0,0
23.03.2017 08:00:00 12,1 9,1 10,6 16 9 34 19 OZO 1010,0 48 0,0
23.03.2017 07:00:00 12,2 9,0 11,0 16 9 27 15 OZO 1009,7 50 0,0
23.03.2017 06:00:00 12,2 9,4 10,6 14 8 29 15 OZO 1009,8 32 0,0
23.03.2017 05:00:00 12,2 9,4 10,0 18 10 31 17 ZO 1009,9 46 0,0
23.03.2017 04:00:00 12,2 9,2 10,4 11 6 29 16 ZZO 1010,5 35 0,2
23.03.2017 03:00:00 13,4 8,7 11,5 18 10 33 18 ZO 1010,8 46 0,0
23.03.2017 02:00:00 13,5 8,5 12,5 16 9 36 19 ZO 1011,2 51 0,0
23.03.2017 01:00:00 - - - - - - - - - - -

tt = temperatuur
td = dauwpunt
tt 5cm = temperatuur 5cm
ff = windsnelheid
fx = windstoten
dd = windrichting
ppp = luchtdruk
vv = zicht
rr = neerslag

Weerstations in de omgeving